| time (UTC) | temp F | wind direction | speed MPH | gust MPH | rain 1hr in | rain 24hr in | rain mn in | humidity % | barometer mb |
| 20260505210215 | 51 | 69 | 2.0 | 0.0 | 0.00 | 0.00 | 0.14 | 88 | 1008.2 |
| 20260505203209 | 51 | 108 | 4.0 | 0.0 | 0.00 | 0.00 | 0.14 | 91 | 1007.9 |
| 20260505200210 | 52 | 196 | 3.0 | 0.0 | 0.00 | 0.00 | 0.14 | 90 | 1007.7 |
| 20260505193209 | 52 | 248 | 1.0 | 0.0 | 0.00 | 0.00 | 0.14 | 89 | 1007.2 |
| 20260505190215 | 53 | 210 | 2.0 | 0.0 | 0.00 | 0.00 | 0.14 | 87 | 1007.3 |
| 20260505183212 | 53 | 194 | 0.0 | 0.0 | 0.00 | 0.00 | 0.14 | 87 | 1007.1 |
| 20260505180211 | 54 | 128 | 2.0 | 0.0 | 0.00 | 0.00 | 0.14 | 86 | 1006.9 |
| 20260505173210 | 54 | 93 | 0.0 | 0.0 | 0.00 | 0.00 | 0.14 | 86 | 1007.1 |
| 20260505170210 | 53 | 206 | 2.0 | 0.0 | 0.00 | 0.00 | 0.14 | 86 | 1006.9 |
| 20260505163211 | 53 | 178 | 2.0 | 0.0 | 0.00 | 0.00 | 0.13 | 84 | 1006.8 |
| 20260505153210 | 61 | 226 | 4.0 | 0.0 | 0.00 | 0.00 | 0.08 | 67 | 1006.1 |
| 20260505150215 | 61 | 311 | 3.0 | 0.0 | 0.00 | 0.00 | 0.08 | 67 | 1005.9 |
| 20260505140210 | 59 | 102 | 4.0 | 0.0 | 0.00 | 0.00 | 0.08 | 77 | 1006.2 |
| 20260505130210 | 55 | 130 | 2.0 | 0.0 | 0.00 | 0.00 | 0.08 | 81 | 1006.9 |
| 20260505123210 | 55 | 114 | 4.0 | 0.0 | 0.00 | 0.00 | 0.07 | 83 | 1007.3 |
| 20260505120210 | 55 | 76 | 0.0 | 0.0 | 0.00 | 0.00 | 0.06 | 82 | 1007.3 |
| 20260505113210 | 56 | 87 | 0.0 | 0.0 | 0.00 | 0.00 | 0.05 | 77 | 1007.4 |
| 20260505110211 | 56 | 212 | 2.0 | 0.0 | 0.00 | 0.00 | 0.04 | 82 | 1007.3 |
| 20260505100212 | 57 | 216 | 3.0 | 0.0 | 0.00 | 0.00 | 0.01 | 80 | 1007.4 |
| 20260505093212 | 59 | 334 | 4.0 | 0.0 | 0.00 | 0.00 | 0.00 | 70 | 1007.3 |
| 20260505090211 | 59 | 300 | 3.0 | 0.0 | 0.00 | 0.00 | 0.00 | 68 | 1007.2 |
| 20260505083211 | 59 | 315 | 0.0 | 0.0 | 0.00 | 0.00 | 0.00 | 68 | 1007.2 |
| 20260505080210 | 58 | 69 | 2.0 | 0.0 | 0.00 | 0.00 | 0.00 | 74 | 1007.3 |
| 20260505073210 | 56 | 54 | 4.0 | 0.0 | 0.00 | 0.00 | 0.00 | 80 | 1007.7 |
| 20260505070211 | 54 | 49 | 0.0 | 0.0 | 0.00 | 0.00 | 0.00 | 81 | 1007.9 |
| 20260505063211 | 54 | 257 | 0.0 | 0.0 | 0.00 | 0.00 | 0.00 | 82 | 1008.0 |
| 20260505060212 | 53 | 82 | 0.0 | 0.0 | 0.00 | 0.00 | 0.00 | 83 | 1008.1 |
| 20260505053211 | 50 | 82 | 0.0 | 0.0 | 0.00 | 0.00 | 0.00 | 86 | 1008.2 |
| 20260505050211 | 49 | 355 | 0.0 | 0.0 | 0.00 | 0.00 | 0.00 | 88 | 1008.4 |
| 20260505040210 | 47 | 355 | 0.0 | 0.0 | 0.00 | 0.00 | 0.00 | 90 | 1008.7 |
| 20260505033211 | 47 | 355 | 0.0 | 0.0 | 0.00 | 0.00 | 0.00 | 90 | 1008.8 |
| 20260505030213 | 48 | 355 | 0.0 | 0.0 | 0.00 | 0.00 | 0.00 | 89 | 1008.8 |
| 20260505023211 | 48 | 355 | 0.0 | 0.0 | 0.00 | 0.00 | 0.00 | 89 | 1009.0 |
| 20260505020211 | 48 | 355 | 0.0 | 0.0 | 0.00 | 0.00 | 0.00 | 88 | 1009.4 |
| 20260505013211 | 50 | 355 | 0.0 | 0.0 | 0.00 | 0.00 | 0.00 | 87 | 1009.6 |
| 20260505010211 | 51 | 355 | 0.0 | 0.0 | 0.00 | 0.00 | 0.00 | 85 | 1010.0 |
| 20260505003208 | 51 | 327 | 0.0 | 0.0 | 0.00 | 0.00 | 0.00 | 85 | 1010.5 |
| 20260505000211 | 51 | 327 | 0.0 | 0.0 | 0.00 | 0.00 | 0.00 | 85 | 1010.7 |
| 20260504233209 | 52 | 327 | 0.0 | 0.0 | 0.00 | 0.00 | 0.00 | 84 | 1010.8 |
| 20260504230209 | 53 | 336 | 0.0 | 0.0 | 0.00 | 0.00 | 0.00 | 82 | 1010.9 |
| 20260504223214 | 54 | 336 | 0.0 | 0.0 | 0.00 | 0.00 | 0.00 | 81 | 1011.1 |
| 20260504220209 | 54 | 307 | 0.0 | 0.0 | 0.00 | 0.00 | 0.00 | 79 | 1011.4 |
| 20260504213209 | 55 | 305 | 3.0 | 0.0 | 0.00 | 0.00 | 0.00 | 78 | 1011.4 |